Volver al catálogo

STARLINK-30203

ActivoComunicacionesVLEO
NORAD 57498·PAYLOAD·🇺🇸 United States

Lanzado Aug 7, 2023 desde Cape Canaveral Space Force Station

Loading…

Próximos Pases (próximas 24 horas)

TLE

ActualizadoSource: CelesTrak SupGP

Época: Sep 14, 2026, 21:17 UTC

1 57498C 23113D   26257.88729167  .00030448  00000+0  11022-2 0  2576
2 57498  43.0048  27.3501 0002174 273.1858  73.4461 15.27581214    12

Sigue STARLINK-30203 en tiempo real con AllMySat

Download on the App Store